Regional Weather Roundup
Issued by NWS

Home | Current Version | Previous Version | Text Only | Print | Product List | Glossary Off
Versions: 1 2 3 4 5 6 7 8 9 10 11 12 13 14 15 16 17 18 19 20 21 22 23 24 25 26 27 28 29 30 31 32 33 34 35 36 37 38 39 40 41 42 43 44 45 46 47 48 49 50

000
ASUS43 KFSD 231202
RWRSD

WEATHER ROUNDUP FOR SOUTH DAKOTA
NATIONAL WEATHER SERVICE SIOUX FALLS SD
700 AM CDT FRI JUN 23 2017

NOTE: "FAIR" INDICATES FEW OR NO CLOUDS BELOW 12,000 FEET WITH NO
SIGNIFICANT WEATHER AND/OR OBSTRUCTIONS TO VISIBILITY.


SDZ001>005-009-010-012>017-231300-
NORTHWEST AND NORTH CENTRAL SOUTH DAKOTA

CITY           SKY/WX    TMP DP  RH WIND       PRES   REMARKS
BUFFALO          N/A     50  42  74 NW16      30.10R
FAITH            N/A     53  46  77 NW28G33   30.11R
MOBRIDGE       CLOUDY    57  47  69 NW23G31   30.00R
$$

SDZ012>016-024>037-041>051-057-063-072>074-231300-
SOUTHWEST AND SOUTH CENTRAL SOUTH DAKOTA

CITY           SKY/WX    TMP DP  RH WIND       PRES   REMARKS
RAPID CTY ARPT PTCLDY    53  39  59 N20       30.18R
PIERRE         MOCLDY    55  47  74 W14       30.06R
CUSTER         CLEAR     43  32  65 W6        30.21F
ELLSWORTH AFB  CLOUDY    54  40  57 NW15      30.17S
PHILIP         CLOUDY    56  45  66 W10       30.14R
PINE RIDGE     LGT RAIN  52  49  89 SE3       30.19F
SPEARFISH      CLOUDY    50  39  66 W14G21    30.21S
WINNER         CLOUDY    59  45  59 NW21G31   30.11R
$$

SDZ004>011-016>023-039-040-231300-
NORTHEAST SOUTH DAKOTA

CITY           SKY/WX    TMP DP  RH WIND       PRES   REMARKS
ABERDEEN       CLOUDY    60  50  69 NW20G26   29.93R
WATERTOWN      MOSUNNY   56  50  80 NW17G26   29.89R
BROOKINGS      SUNNY     56  48  74 NW15      29.92R
SISSETON         N/A     61  53  75 NW23G35   29.84R
$$

SDZ017-020-022-023-036>040-048>070-231300-
SOUTHEAST SOUTH DAKOTA

CITY           SKY/WX    TMP DP  RH WIND       PRES   REMARKS
SIOUX FALLS    MOSUNNY   58  48  69 NW15G21   29.93R
HURON          MOSUNNY   57  50  77 NW18G29   29.97R
CHAMBERLAIN    CLOUDY    58  49  72 W15G21    30.07R
MITCHELL       PTSUNNY   59  48  67 NW16G25   29.98R
YANKTON        PTSUNNY   59  44  57 W14       29.99R
$$

ABBREVIATIONS USED IN REMARKS
   TC - TEMPERATURE IN CELSIUS
  WCI - WIND CHILL INDEX
   HX - HEAT INDEX
  VSB - VISIBILITY





USA.gov is the U.S. government's official web portal to all federal, state and local government web resources and services.